Regional Weather Roundup
Issued by NWS

Home | Current Version | Previous Version | Graphics & Text | Print | Product List | Glossary On
Versions: 1 2 3 4 5 6 7 8 9 10 11 12 13 14 15 16 17 18 19 20 21 22 23 24 25 26 27 28 29 30 31 32 33 34 35 36 37 38 39 40 41 42 43 44 45 46 47 48 49 50
523
ASUS43 KLOT 191003
RWRIL

ILLINOIS REGIONAL WEATHER ROUNDUP
NATIONAL WEATHER SERVICE CHICAGO/ROMEOVILLE IL
400 AM CST THU JAN 19 2017

NOTE: "FAIR" INDICATES FEW OR NO CLOUDS BELOW 12,000 FEET WITH NO
SIGNIFICANT WEATHER AND/OR OBSTRUCTIONS TO VISIBILITY.

* THESE STATIONS ARE NOT UNDER NWS QUALITY CONTROL. THEY ALSO MAY NOT
  REPORT WEATHER SUCH AS PRECIPITATION OR FOG.

ILZ001-002-007-009-015-016-024-191100-
NORTHWEST ILLINOIS

CITY           SKY/WX    TMP DP  RH WIND       PRES   REMARKS
MOLINE         CLOUDY    28  26  92 E7        29.97F FOG     WCI  21
STERLING*      MOCLDY    32  32 100 SE5       30.01F FOG     WCI  27
SAVANNA*       CLOUDY    29  29  98 NE5       29.99F FOG     WCI  24
$$

ILZ003-004-008-010-011-017-018-191100-
NORTH CENTRAL ILLINOIS

CITY           SKY/WX    TMP DP  RH WIND       PRES   REMARKS
ROCKFORD       CLOUDY    30  29  96 S6        30.02F FOG     WCI  24
FREEPORT*      PTCLDY    32  31  97 CALM      30.01F FOG
ROCHELLE*      CLOUDY    32  32 100 CALM      30.02F FOG
DE KALB*       FOG       32  32 100 S7        30.02F VSB 1/4 WCI  26
$$

ILZ005-006-012>014-019>023-191100-
NORTHEAST ILLINOIS

CITY           SKY/WX    TMP DP  RH WIND       PRES   REMARKS
CHICAGO-OHARE  FOG       33  33 100 S7        30.02F VSB 3/4 WCI  27
CHICAGO-MIDWAY CLOUDY    32  31  96 SE3       30.03F FOG
AURORA         FOG       33  32  96 CALM      30.03F VSB 1/4
LANSING*       PTCLDY    32  32 100 S5        30.05F FOG     WCI  27
JOLIET*        CLOUDY    34  34 100 CALM      30.04F FOG
WAUKEGAN       FOG       33  33 100 VRB7      30.00F VSB 1   WCI  27
DUPAGE AIRPORT FOG       32  31  96 CALM      30.01F VSB 1/2
WHEELING       CLOUDY    34  33  96 S8        30.03F FOG     WCI  27
MORRIS*        CLOUDY    32  32  99 CALM      30.03F FOG
ROMEOVILLE*    PTCLDY    32  32 100 S7        30.04S FOG     WCI  26
NORTHERLY ISL    N/A     34  32  92 S5          N/A  WCI  30
$$

LMZ740>746-191100-
SOUTHERN LAKE MICHIGAN

STATION/POSITION SKY/WX   TEMP    WIND        PRES    VSBY  WAVE
                          AIR SEA DIR/SP/G                  HT/PER
                          (F)     (DEG/KT/KT) (MB)    (MI)  (FT/S)
HARRISON CRIB              36     180/ 12/ 13   N/A
BURNHAM HARBOR             34     180/  3/  7   N/A
CALUMET HARBOR             33     190/  5/  8 1017.0F
BURNS HARBOR               35     180/ 11/ 13 1017.9F
$$

ILZ025>027-034>036-040-047-049-050-058-095>099-191100-
WEST-CENTRAL ILLINOIS

CITY           SKY/WX    TMP DP  RH WIND       PRES   REMARKS
QUINCY         MOCLDY    36  34  92 SE5       29.96F WCI  32
GALESBURG*     CLOUDY    34  34 100 SE6       29.97F FOG     WCI  29
MACOMB*        CLOUDY    34  34  99 SE5       30.00F FOG     WCI  30
JACKSONVILLE*  CLOUDY    38  37  94 E5        29.99F WCI  35
PITTSFIELD*    CLOUDY    39  38  94 S3        29.99F
$$

ILZ028>032-037-038-041>044-048-051>054-059>061-191100-
CENTRAL ILLINOIS

CITY           SKY/WX    TMP DP  RH WIND       PRES   REMARKS
BLOOMINGTON    CLOUDY    34  33  96 S10       30.03F FOG     WCI  26
DECATUR        CLOUDY    37  37 100 SE5       30.03F WCI  33
PEORIA         CLOUDY    36  35  96 SE5       30.01F FOG     WCI  32
LACON*         CLOUDY    32  32 100 CALM      30.01F FOG
LINCOLN*       CLOUDY    37  37 100 CALM      30.02F FOG
SPRINGFIELD    CLOUDY    40  37  89 SE8       30.01F
TAYLORVILLE    CLOUDY    38  37  94 SE6       30.02S WCI  34
$$

ILZ033-039-045-046-055>057-062-063-191100-
EAST-CENTRAL ILLINOIS

CITY           SKY/WX    TMP DP  RH WIND       PRES   REMARKS
CHAMPAIGN      CLOUDY    34  32  92 SE8       30.05F FOG     WCI  27
MATTOON        CLOUDY    37  35  92 SE5       30.04F WCI  33
PARIS*         CLOUDY    35  34  99 SE5       30.07S FOG     WCI  30
$$

ILZ079-100>102-191100-
SOUTHWEST ILLINOIS

CITY           SKY/WX    TMP DP  RH WIND       PRES   REMARKS
ALTON          CLOUDY    40  38  93 E6        29.99F
BELLEVILLE     CLOUDY    42  41  99 E6        29.98F
CAHOKIA*       CLOUDY    43  38  82 SE5       29.98F
SPARTA*        CLOUDY    42  39  90 CALM      30.01F
$$

ILZ064>066-069>071-074>076-080>082-084>086-088>090-092>094-191100-
SOUTH-CENTRAL ILLINOIS

CITY           SKY/WX    TMP DP  RH WIND       PRES   REMARKS
CARBONDALE     CLOUDY    43  41  93 E6        30.00F
CAIRO*         CLOUDY    43  43  99 NE6       30.00F FOG
EFFINGHAM*     RAIN      38  38 100 E3        30.05F
MARION         CLOUDY    45  43  93 E3        30.02F
MT. VERNON     CLOUDY    42  38  85 NE6       30.02F
CENTRALIA*     CLOUDY    42  40  91 E6        30.01F
SALEM*         CLOUDY    42  38  87 SE5       30.03F
$$

ILZ067-068-072-073-078-083-087-091-191100-
SOUTHEAST ILLINOIS

CITY           SKY/WX    TMP DP  RH WIND       PRES   REMARKS
LAWRENCEVILLE  CLOUDY    38  37  97 CALM      30.07F FOG
FLORA*         CLOUDY    40  38  91 E5        30.04F FOG
FAIRFIELD*     CLOUDY    40  38  91 CALM      30.04F
HARRISBURG*    CLOUDY    42  40  93 E6        30.02F FOG
ROBINSON*      CLOUDY    36  35  96 CALM      30.09S FOG
CARMI*         CLOUDY    40  39  94 E6        30.04F FOG
$$

ABBREVIATIONS USED IN REMARKS
   TC - TEMPERATURE IN CELSIUS
  WCI - WIND CHILL INDEX
   HX - HEAT INDEX
  VSB - VISIBILITY
$$





USA.gov is the U.S. government's official web portal to all federal, state and local government web resources and services.